Miscellaneous Local Product
Issued by NWS North Platte, NE

Home | Current Version | Previous Version | Graphics & Text | Print | Product List | Glossary On
Versions: 1 2 3 4 5 6 7 8 9 10 11 12 13 14 15 16 17 18 19 20 21 22 23 24 25 26 27 28 29 30 31 32 33 34 35 36 37 38 39 40 41 42 43 44 45 46 47 48 49 50
237
AXUS43 KLBF 061410
MISLBF


WESTERN AND NORTH CENTRAL NEBRASKA HOURLY WEATHER ROUNDUP
NATIONAL WEATHER SERVICE NORTH PLATTE NE
800 AM CST TUE DEC 06 2016

NOTE: "FAIR" INDICATES FEW OR NO CLOUDS BELOW 12,000 FEET WITH NO
SIGNIFICANT WEATHER AND/OR OBSTRUCTIONS TO VISIBILITY.

NOTE: STATIONS NOT REPORTING VARIABLES SUCH AS SKY/WEATHER OR
PRESSURE ARE PROVIDED BY RAWS AND APRS NETWORKS AND ARE NOT UNDER
NATIONAL WEATHER SERVICE QUALITY CONTROL.

...OBSERVATIONS IN AND NEAR THE EASTERN PANHANDLE OF NEBRASKA...

CITY           SKY/WX    TMP DP  RH WIND       PRES   REMARKS
PINE RIDGE     CLEAR     10   3  73 W9        29.96S WCI  -3
CHADRON        CLEAR     10   2  69 SW13      30.01R WCI  -5
ALLIANCE       CLEAR      2  -3  80 MISG      29.96R
SIDNEY         CLEAR      3  -3  76 W9        29.96S WCI -12
CRESCENT LAKE    N/A      7   2  79 W6          N/A  WCI  -3
$$

...OBSERVATIONS IN NORTHERN NEBRASKA AND FAR SOUTHERN SOUTH DAKOTA...

CITY           SKY/WX    TMP DP  RH WIND       PRES   REMARKS
WINNER         FAIR      14   5  67 W22G28    29.96R WCI  -4
VALENTINE      CLEAR     10   3  73 W12       29.97R WCI  -5
THEDFORD       CLEAR     15   9  75 W9        29.97S WCI   3
AINSWORTH      CLEAR     13   8  79 W12       29.96S WCI  -1
O`NEILL        CLEAR     18   6  58 NW16G29   29.95R WCI   4
ORD            CLEAR     16   9  74 W8        29.99R WCI   5
BROKEN BOW     CLEAR     15   8  73 W8        29.98S WCI   4
VALENTINE NWR    N/A     10   4  77 W7          N/A  WCI  -1
BUTTE            N/A     14   6  72 NW22G31     N/A  WCI  -4
HALSEY           N/A     16   5  62 W9G16       N/A  WCI   5
CHAMBERS         N/A     18   3  51 W6          N/A  WCI  10
EWING            N/A     18   8  64 W12         N/A  WCI   6
$$

...OBSERVATIONS IN SOUTHWEST NEBRASKA AND FAR NORTHEAST COLORADO...

CITY           SKY/WX    TMP DP  RH WIND       PRES   REMARKS
WRAY           CLOUDY    10   5  79 SW6       30.02S WCI   1
HOLYOKE        FAIR       9   3  78 W8        29.99F WCI  -4
IMPERIAL       CLEAR      8   2  76 SW6       30.02R WCI  -2
OGALLALA       CLEAR      8   3  82 W10       30.02S WCI  -7
NORTH PLATTE   CLEAR     12   6  77 W8        30.01R WCI   0
MCCOOK         CLEAR     16   7  67 W12       30.06R WCI   3
LEXINGTON      CLEAR     14   9  81 W5        30.04S WCI   6
STAPLETON        N/A     13   7  76 CALM        N/A
GOTHENBURG       N/A     15   7  71 W6          N/A  WCI   6
CALLAWAY         N/A     14   9  79 W8          N/A  WCI   3
$$

...OBSERVATIONS IN CENTRAL LINCOLN COUNTY AREA...

CITY           SKY/WX    TMP DP  RH WIND       PRES   REMARKS
N.P. AIRPORT   CLEAR     12   6  77 W8        30.01R WCI   0
N.P. DOWNTOWN    N/A     13   7  76 CALM        N/A
N.P. SOUTHEAST   N/A     13   7  75 W3          N/A
N.P. HILLCREST   N/A     12   7  81 W3          N/A
$$

...SOME OBSERVATIONS FROM AROUND THE REGION...

CITY           SKY/WX    TMP DP  RH WIND       PRES   REMARKS
LARAMIE        CLOUDY    -7 -16  65 SE9       29.83S WCI -24
CHEYENNE       CLEAR     10 -15  31 W15       29.87S WCI  -7
DENVER         PTCLDY     5  -3  69 S10       29.92R WCI -10
AKRON          CLOUDY     7   0  73 W8        29.97R WCI  -6
SCOTTSBLUFF    CLEAR      2  -4  76 N8        29.98S WCI -12
RAPID CITY     CLEAR      7   0  73 N13       29.95R WCI  -9
BISMARCK       LGT SNOW  10   7  87 NW26G40   29.82R FOG     WCI -11
PIERRE         CLOUDY    13   6  74 NW30G43   29.93R WCI  -8
SIOUX FALLS    FLURRIES  17  12  80 W18G33    29.84S WCI   1
OMAHA          CLEAR     22  12  65 NW7       30.01R WCI  13
GRAND ISLAND   CLEAR     17  13  84 W9        30.02R WCI   6
KANSAS CITY    PTCLDY    31  17  56 N16G25    29.98R WCI  20
WICHITA        PTCLDY    30  20  66 N13       30.05R WCI  20
OKLAHOMA CITY  MOCLDY    36  27  69 N23G29    30.00R WCI  24
DALLAS         LGT RAIN  49  47  93 N14       29.90R FOG
AMARILLO       CLOUDY    26  13  57 N20       30.07R WCI  12
DODGE CITY     CLOUDY    20  13  74 NW9       30.07R WCI   9
HAYS           MOCLDY    21  14  74 W6        30.08R WCI  13
GOODLAND       CLOUDY     7   1  76 W7        30.04R WCI  -5
$$




USA.gov is the U.S. government's official web portal to all federal, state and local government web resources and services.